CAPE
0 0 0 0 0 0 0 0 0 0 0 0 0 0 351 812 420 40 1278 419 643 845 870 1104 1033 865 330 0 0 0 0 0 0 0 0 12 7 8 149 407 554 498 504 425 51 4 28 18 3
0 0 0 0 0 0 0 0 0 0 0 0 0 1390 1028 987 1884 1612 1434 936 884 790 951 904 1066 851 413 0 0 0 0 0 0 0 0 0 0 3 147 391 517 331 264 240 41 7 28 9 1
0 0 0 0 0 0 0 0 0 0 0 0 0 101 1654 913 1865 1563 1593 1298 1018 797 972 1200 1154 905 454 37 16 0 0 0 0 0 0 0 0 3 188 372 436 395 317 105 21 1 0 0 0
0 0 0 0 0 0 0 0 0 0 0 0 0 0 1028 2075 1807 1743 1626 1446 847 838 1018 1468 1384 1014 501 74 72 17 0 6 0 0 0 0 0 0 131 337 439 531 443 79 0 0 0 0 0
0 0 0 0 0 0 0 0 0 0 0 0 0 0 192 1944 1675 1482 1628 1384 703 970 1042 1388 1333 1039 443 63 128 104 28 18 11 6 21 19 6 23 83 259 471 632 468 100 0 0 0 0 0
0 0 0 0 0 0 0 0 0 0 0 0 0 0 191 1694 1475 1249 1427 905 854 806 1164 1223 1349 901 351 54 71 105 48 25 24 20 40 95 95 277 253 397 399 321 270 99 1 0 0 0 0
0 0 0 0 0 0 0 0 0 0 0 0 0 0 422 1689 1649 1186 904 790 841 1117 1100 1231 1208 870 535 257 99 133 96 58 57 55 54 104 249 497 576 558 471 293 115 43 23 3 0 0 19
0 0 0 0 0 0 0 0 0 0 0 0 0 0 112 1340 1756 1286 807 1051 1060 1354 1303 1126 1016 952 799 671 343 278 303 127 100 128 96 99 199 366 494 597 517 298 66 29 26 11 0 0 0
0 0 0 0 0 0 0 0 0 0 0 0 0 0 303 1789 2030 1709 1484 1425 1047 1170 1243 1106 1008 983 843 772 748 560 509 374 236 243 211 165 111 207 341 340 304 265 101 71 65 43 28 24 36
0 0 0 0 0 0 0 0 0 0 0 0 0 155 1360 2199 2327 2331 2315 2151 1515 1060 1051 1173 1142 921 894 1006 1072 798 721 461 206 180 225 154 94 93 135 156 123 117 65 46 53 75 66 59 22
0 0 0 0 0 0 0 0 0 0 0 0 0 118 354 1466 2378 2528 2591 2467 2015 1518 1103 1041 1014 984 995 1014 867 807 800 505 245 135 214 222 176 165 168 140 174 146 81 26 40 11 33 15 6
0 0 0 0 0 0 0 0 0 0 0 0 0 0 0 229 1347 2022 2362 2608 2221 1885 1280 994 837 835 778 717 736 848 803 621 378 336 324 243 184 130 104 118 97 126 105 37 21 8 0 0 0
0 0 0 0 0 0 0 0 0 0 0 0 0 0 0 0 0 0 1400 2175 2006 1830 1538 1025 936 745 611 449 301 516 608 760 639 470 481 425 286 151 127 180 282 224 243 192 144 93 60 35 13
0 0 0 0 0 0 0 0 0 0 0 0 0 0 0 0 0 0 291 998 1620 1682 1660 1019 955 519 50 70 68 306 1017 944 791 690 650 660 370 215 123 174 285 354 349 290 242 225 176 95 24
0 0 0 0 0 0 0 0 0 0 0 0 0 0 0 0 0 0 11 239 1010 1532 1414 846 729 445 162 158 721 703 768 704 523 657 756 663 345 266 133 253 341 474 465 380 361 340 250 162 68
0 0 0 0 0 0 0 0 0 0 0 0 0 0 0 0 0 0 35 415 1286 1353 1009 770 825 447 274 372 589 929 701 587 605 516 436 632 737 551 438 362 526 544 542 529 406 237 184 110 75
0 0 0 0 0 0 0 0 0 0 0 0 0 0 0 0 0 0 2 448 880 956 967 749 663 453 326 625 816 915 1074 914 662 632 548 505 708 755 730 643 608 646 529 435 294 57 52 55 19
0 0 0 0 0 0 0 0 0 0 0 0 0 0 0 0 0 0 0 335 651 835 1071 678 547 366 399 635 688 869 1383 1036 762 645 733 864 876 893 766 445 516 358 143 100 53 13 15 16 0
0 0 0 0 0 0 0 0 0 0 0 0 0 0 0 0 0 0 0 255 900 1050 1016 678 556 342 381 501 715 1189 972 722 570 439 419 635 916 1020 787 492 251 90 50 48 0 0 0 0 0
0 0 0 0 0 0 0 0 0 0 0 0 0 0 0 0 0 0 111 572 911 1193 1024 733 623 659 523 488 925 1227 978 660 921 851 822 1023 1017 764 498 319 111 56 24 0 0 0 0 0 0
0 0 0 0 0 0 0 0 0 0 0 0 0 0 0 0 0 0 149 585 1121 1232 1165 1057 808 881 535 549 995 947 917 581 397 305 404 467 802 965 729 430 207 96 62 66 17 14 10 71 0
0 0 0 0 0 0 0 0 0 0 0 0 0 0 0 0 0 247 520 1018 1387 1309 1008 873 814 1012 1158 1170 928 1073 937 614 63 34 3 0 9 85 262 445 343 370 217 226 154 47 20 0 0
0 0 0 0 0 0 0 0 0 0 0 0 0 0 0 19 117 662 1213 1066 772 649 715 793 851 929 1008 1129 1085 737 374 14 0 0 0 0 0 0 0 0 0 0 0 0 0 0 0 0 0
0 0 0 0 0 0 0 0 0 0 0 0 0 153 206 248 494 704 640 690 639 449 453 528 602 490 395 391 384 283 86 0 0 0 0 0 0 0 0 0 0 0 0 0 0 0 0 0 0
0 0 0 0 0 0 0 0 0 0 0 0 0 175 358 506 561 661 540 279 95 73 106 68 99 61 29 56 5 0 0 0 0 0 0 0 0 0 0 0 0 0 0 0 0 0 0 0 0
0 0 0 0 0 0 0 0 0 0 0 0 61 217 428 551 634 425 232 6 7 0 0 0 1 1 0 0 0 0 0 0 0 0 0 0 0 0 0 0 0 0 0 0 0 0 0 0 0
0 0 0 0 0 0 0 0 0 0 0 39 120 369 426 345 167 78 5 0 0 0 0 0 0 0 0 0 0 0 0 0 0 0 0 0 0 0 0 0 0 0 0 0 0 0 0 0 0
0 0 0 0 0 0 0 0 0 0 0 16 105 321 138 7 0 0 0 0 0 0 0 0 0 0 0 0 0 0 0 0 0 0 0 0 0 0 0 0 0 0 0 0 0 0 0 0 0
7 1 0 0 0 0 0 0 0 1 4 4 45 37 26 1 0 0 0 0 0 0 0 0 0 0 0 0 0 0 0 0 0 0 0 0 0 0 0 0 0 0 0 0 0 0 0 0 0
15 0 0 0 0 0 0 0 0 2 14 1 0 0 0 0 0 0 0 0 0 0 0 0 0 0 0 0 0 0 0 0 0 0 0 0 0 0 0 0 0 0 0 0 0 0 0 0 0
CIN
-0 -0 -0 -0 -0 -0 -0 -0 -0 -0 -0 -0 -0 -0 -44 -59 -62 -34 -366 -516 -502 -508 -532 -440 -419 -396 -451 -0 -0 -0 -0 -0 -0 -0 -0 -494 -528 -634 -391 -247 -180 -179 -154 -168 -398 -464 -419 -443 -532
-0 -0 -0 -0 -0 -0 -0 -0 -0 -0 -0 -0 -0 -49 -39 -32 -174 -279 -307 -490 -494 -537 -528 -505 -424 -406 -450 -0 -0 -0 -0 -0 -0 -0 -0 -0 -0 -477 -335 -219 -149 -191 -223 -231 -394 -397 -369 -427 -259
-0 -0 -0 -0 -0 -0 -0 -0 -0 -0 -0 -0 -0 -25 -44 -51 -173 -254 -354 -473 -534 -548 -518 -437 -419 -420 -465 -584 -519 -0 -0 -0 -0 -0 -0 -0 -0 -386 -306 -213 -171 -167 -166 -250 -373 -117 -0 -0 -0
-0 -0 -0 -0 -0 -0 -0 -0 -0 -0 -0 -0 -0 -0 -58 -95 -132 -235 -412 -482 -529 -544 -512 -369 -333 -389 -461 -545 -538 -562 -0 -589 -0 -0 -0 -0 -0 -0 -332 -231 -167 -124 -128 -274 -0 -0 -0 -0 -0
-0 -0 -0 -0 -0 -0 -0 -0 -0 -0 -0 -0 -0 -0 -14 -91 -209 -282 -374 -462 -510 -494 -466 -345 -303 -333 -436 -509 -487 -483 -533 -547 -544 -390 -465 -453 -314 -426 -351 -249 -154 -94 -122 -245 -0 -0 -0 -0 -0
-0 -0 -0 -0 -0 -0 -0 -0 -0 -0 -0 -0 -0 -0 -30 -124 -179 -325 -408 -460 -457 -425 -393 -363 -280 -316 -400 -487 -475 -459 -493 -515 -494 -514 -460 -389 -375 -270 -233 -159 -153 -178 -183 -238 -71 -0 -0 -0 -0
-0 -0 -0 -0 -0 -0 -0 -0 -0 -0 -0 -0 -0 -0 -79 -113 -194 -317 -432 -447 -429 -394 -358 -306 -279 -304 -355 -401 -451 -424 -450 -482 -446 -442 -423 -377 -306 -210 -153 -117 -103 -143 -217 -272 -310 -320 -0 -0 -272
-0 -0 -0 -0 -0 -0 -0 -0 -0 -0 -0 -0 -0 -0 -44 -90 -226 -332 -383 -387 -366 -322 -300 -309 -294 -292 -306 -302 -351 -367 -364 -407 -404 -376 -382 -359 -306 -220 -156 -99 -110 -173 -285 -349 -352 -399 -0 -0 -0
-0 -0 -0 -0 -0 -0 -0 -0 -0 -0 -0 -0 -0 -0 -88 -125 -183 -208 -254 -314 -351 -319 -283 -289 -286 -266 -247 -242 -234 -263 -265 -300 -338 -316 -313 -325 -332 -267 -179 -169 -182 -198 -281 -320 -297 -310 -332 -337 -289
-0 -0 -0 -0 -0 -0 -0 -0 -0 -0 -0 -0 -0 -127 -97 -93 -114 -117 -145 -167 -229 -276 -287 -261 -226 -224 -188 -140 -122 -174 -188 -253 -334 -338 -305 -333 -359 -342 -279 -237 -235 -253 -337 -384 -367 -317 -320 -325 -414
-0 -0 -0 -0 -0 -0 -0 -0 -0 -0 -0 -0 -0 -25 -95 -67 -47 -67 -95 -118 -166 -206 -219 -219 -237 -197 -174 -162 -171 -179 -183 -237 -306 -341 -296 -279 -282 -257 -269 -298 -229 -236 -284 -380 -354 -416 -371 -404 -430
-0 -0 -0 -0 -0 -0 -0 -0 -0 -0 -0 -0 -0 -0 -0 -68 -46 -53 -62 -115 -125 -157 -202 -230 -250 -233 -220 -222 -194 -145 -164 -190 -232 -226 -235 -239 -248 -298 -308 -312 -335 -284 -272 -324 -339 -367 -40 -0 -51
-0 -0 -0 -0 -0 -0 -0 -0 -0 -0 -0 -0 -0 -0 -0 -0 -0 -0 -118 -145 -152 -159 -197 -228 -235 -228 -224 -236 -294 -287 -222 -179 -172 -181 -157 -165 -187 -267 -305 -244 -189 -185 -178 -184 -210 -257 -287 -328 -398
-0 -0 -0 -0 -0 -0 -0 -0 -0 -0 -0 -0 -0 -0 -0 -0 -0 -0 -266 -171 -162 -172 -163 -243 -241 -281 -313 -311 -308 -291 -150 -219 -176 -147 -128 -136 -138 -191 -279 -238 -159 -115 -114 -141 -166 -192 -208 -278 -355
-0 -0 -0 -0 -0 -0 -0 -0 -0 -0 -0 -0 -0 -0 -0 -0 -0 -0 -203 -259 -211 -181 -187 -239 -256 -272 -266 -254 -257 -230 -171 -149 -156 -129 -121 -113 -141 -128 -225 -166 -133 -101 -115 -106 -131 -149 -179 -202 -250
-0 -0 -0 -0 -0 -0 -0 -0 -0 -0 -0 -0 -0 -0 -0 -0 -0 -0 -426 -274 -214 -195 -216 -242 -230 -254 -315 -319 -286 -177 -145 -131 -146 -142 -127 -107 -85 -105 -132 -124 -105 -112 -105 -112 -140 -161 -179 -243 -236
-0 -0 -0 -0 -0 -0 -0 -0 -0 -0 -0 -0 -0 -0 -0 -0 -0 -0 -164 -315 -240 -204 -209 -226 -244 -253 -358 -293 -232 -183 -88 -91 -138 -126 -108 -113 -85 -73 -85 -73 -75 -80 -105 -127 -127 -201 -192 -169 -204
-0 -0 -0 -0 -0 -0 -0 -0 -0 -0 -0 -0 -0 -0 -0 -0 -0 -0 -0 -375 -268 -254 -221 -264 -340 -380 -356 -265 -213 -144 -72 -107 -114 -96 -85 -71 -83 -79 -73 -117 -114 -164 -214 -199 -190 -174 -229 -193 -0
-0 -0 -0 -0 -0 -0 -0 -0 -0 -0 -0 -0 -0 -0 -0 -0 -0 -0 -0 -370 -259 -255 -248 -296 -317 -378 -349 -298 -184 -82 -70 -54 -39 -83 -106 -81 -62 -68 -73 -110 -156 -205 -196 -194 -1 -0 -0 -0 -0
-0 -0 -0 -0 -0 -0 -0 -0 -0 -0 -0 -0 -0 -0 -0 -0 -0 -0 -366 -329 -263 -243 -259 -303 -293 -318 -328 -288 -162 -78 -67 -71 -80 -98 -101 -84 -79 -101 -135 -175 -248 -273 -285 -0 -0 -0 -0 -0 -0
-0 -0 -0 -0 -0 -0 -0 -0 -0 -0 -0 -0 -0 -0 -0 -0 -0 -0 -273 -265 -275 -237 -217 -235 -286 -273 -304 -247 -147 -135 -112 -130 -125 -143 -153 -175 -133 -118 -143 -175 -219 -306 -300 -267 -321 -311 -297 -168 -0
-0 -0 -0 -0 -0 -0 -0 -0 -0 -0 -0 -0 -0 -0 -0 -0 -0 -220 -252 -264 -242 -188 -265 -294 -238 -217 -172 -156 -143 -96 -79 -83 -282 -287 -61 -0 -205 -340 -230 -153 -156 -141 -190 -168 -156 -225 -208 -0 -0
-0 -0 -0 -0 -0 -0 -0 -0 -0 -0 -0 -0 -0 -0 -0 -248 -231 -269 -299 -356 -360 -375 -320 -278 -249 -222 -188 -177 -138 -140 -174 -330 -0 -0 -0 -0 -0 -0 -0 -0 -0 -0 -0 -0 -0 -0 -0 -0 -0
-0 -0 -0 -0 -0 -0 -0 -0 -0 -0 -0 -0 -0 -238 -309 -368 -413 -405 -422 -397 -371 -382 -352 -320 -289 -318 -338 -289 -283 -262 -306 -0 -0 -0 -0 -0 -0 -0 -0 -0 -0 -0 -0 -0 -0 -0 -0 -0 -0
-0 -0 -0 -0 -0 -0 -0 -0 -0 -0 -0 -0 -6 -235 -312 -371 -380 -344 -357 -371 -393 -428 -441 -456 -443 -434 -529 -471 -438 -78 -0 -0 -0 -0 -0 -0 -0 -0 -0 -0 -0 -0 -0 -0 -0 -0 -0 -0 -0
-0 -0 -0 -0 -0 -0 -0 -0 -0 -0 -0 -0 -179 -264 -303 -313 -339 -358 -383 -290 -453 -0 -0 -0 -66 -76 -0 -0 -0 -0 -0 -0 -0 -0 -0 -0 -0 -0 -0 -0 -0 -0 -0 -0 -0 -0 -0 -0 -0
-0 -0 -0 -0 -0 -0 -0 -0 -0 -0 -0 -158 -208 -239 -242 -301 -365 -445 -542 -0 -0 -0 -0 -0 -0 -0 -0 -0 -0 -0 -0 -0 -0 -0 -0 -0 -0 -0 -0 -0 -0 -0 -0 -0 -0 -0 -0 -0 -0
-17 -0 -0 -0 -0 -0 -0 -0 -0 -0 -0 -223 -205 -216 -283 -410 -0 -0 -0 -0 -0 -0 -0 -0 -0 -0 -0 -0 -0 -0 -0 -0 -0 -0 -0 -0 -0 -0 -0 -0 -0 -0 -0 -0 -0 -0 -0 -0 -0
-7 -5 -0 -0 -0 -0 -0 -0 -0 -32 -146 -202 -285 -334 -342 -121 -0 -0 -0 -0 -0 -0 -0 -0 -0 -0 -0 -0 -0 -0 -0 -0 -0 -0 -0 -0 -0 -0 -0 -0 -0 -0 -0 -0 -0 -0 -0 -0 -0
-19 -0 -0 -0 -0 -0 -0 -0 -14 -92 -320 -60 -18 -13 -0 -0 -0 -0 -0 -0 -0 -0 -0 -0 -0 -0 -0 -0 -0 -0 -0 -0 -0 -0 -0 -0 -0 -0 -0 -0 -0 -0 -0 -0 -0 -0 -0 -0 -0
Wind_Speed
23 23 19 20 23 25 28 24 22 21 19 18 27 14 7 14 10 19 11 8 7 12 15 16 14 13 14 15 16 17 18 18 17 17 16 16 16 16 17 17 18 18 18 18 17 17 17 18 20
20 17 17 20 24 27 33 26 26 23 23 24 20 16 13 17 16 12 6 2 7 11 12 13 14 11 12 14 15 16 17 17 17 17 16 15 15 15 16 16 16 17 17 17 17 16 16 17 18
19 17 19 21 27 25 32 28 24 28 25 25 23 19 19 19 18 7 13 3 6 7 8 8 12 15 13 14 13 14 14 15 16 17 16 15 14 14 14 14 15 15 15 15 16 15 15 15 14
16 16 20 30 33 31 33 27 26 31 33 23 21 25 22 13 9 11 5 1 3 3 4 7 7 8 9 9 10 10 12 12 14 14 14 14 14 13 13 13 13 13 13 13 13 13 13 13 13
15 18 29 34 36 31 29 28 30 32 31 32 27 25 25 19 12 6 2 0 5 3 5 5 4 6 7 6 6 6 7 8 9 10 10 10 10 11 11 11 11 11 11 11 11 11 11 11 11
17 20 31 37 36 30 34 32 30 32 34 39 31 28 23 17 10 5 1 1 2 3 2 4 5 5 5 6 5 4 4 5 7 8 8 7 7 7 7 8 9 9 9 9 9 9 9 9 9
21 23 33 33 35 35 28 26 28 30 34 38 28 27 21 16 10 5 3 2 2 1 1 1 3 3 3 3 3 2 3 3 4 5 6 6 6 6 6 6 8 9 9 9 8 8 7 8 8
17 24 32 29 29 31 24 25 27 29 37 32 20 24 22 14 7 5 4 3 2 1 0 2 3 3 3 3 3 2 1 1 2 3 5 4 5 5 5 6 7 9 9 8 7 7 6 6 7
15 28 32 28 23 25 22 24 23 27 29 26 24 21 19 8 5 6 7 6 6 6 5 3 3 4 5 5 5 5 5 4 4 4 4 5 5 6 7 8 8 8 8 8 8 8 8 9 11
19 27 27 24 25 26 25 27 28 30 29 24 20 16 8 8 8 8 9 9 9 8 7 5 5 6 6 8 6 7 6 6 6 5 5 6 6 6 8 10 11 9 9 9 9 9 9 10 13
23 31 25 24 27 28 27 31 27 27 28 22 20 15 12 12 13 13 14 14 11 10 10 8 6 6 7 8 8 8 9 8 8 6 7 8 9 10 10 10 11 12 12 12 12 11 12 12 13
28 25 25 28 28 28 27 25 26 26 31 25 24 21 15 11 15 15 14 12 11 9 9 8 6 6 6 7 8 11 14 15 16 15 12 11 11 11 12 12 11 11 12 13 15 15 15 17 18
31 28 27 29 29 30 33 27 30 35 36 35 29 20 18 17 12 13 12 11 11 12 11 9 7 7 6 6 7 6 12 10 16 16 17 16 16 14 13 13 12 12 14 15 17 19 20 22 23
25 25 28 30 28 25 27 30 25 29 32 35 34 26 20 18 16 11 10 10 10 9 9 10 10 8 7 9 9 9 8 5 6 8 5 12 14 16 16 11 14 16 15 16 17 18 19 21 21
33 38 35 28 26 27 26 31 26 24 27 31 34 31 30 21 16 15 11 10 10 10 9 10 10 9 8 8 11 8 7 4 6 5 15 13 16 18 16 14 17 18 17 16 17 18 16 17 19
27 28 34 26 23 24 19 29 29 23 28 29 29 34 33 31 24 21 15 14 14 12 12 10 9 9 9 10 9 7 6 6 9 9 19 20 21 21 18 16 17 16 15 15 15 16 19 20 21
31 33 33 33 25 24 21 33 31 25 26 29 28 30 32 34 32 26 20 16 13 12 13 12 9 10 11 11 9 6 13 13 14 14 15 20 19 16 15 16 16 15 16 19 21 22 24 24 25
30 30 29 28 23 23 29 34 34 28 26 29 32 33 32 34 35 28 21 17 14 13 13 13 11 11 13 14 15 16 15 12 11 10 11 12 11 15 16 14 16 18 19 20 19 21 22 25 28
28 31 30 27 24 26 30 35 34 33 33 33 32 32 34 32 33 23 18 15 14 14 12 13 11 11 10 10 12 13 13 10 11 11 10 13 12 13 16 17 17 17 17 18 18 19 23 25 23
34 34 32 28 26 26 32 38 37 35 35 32 30 29 30 31 25 19 16 14 11 11 12 12 11 11 9 8 6 11 12 13 10 12 11 13 13 14 16 16 17 16 17 18 19 22 23 23 23
38 37 32 29 25 27 30 39 35 35 33 31 28 25 24 24 23 17 14 13 12 13 12 11 10 9 7 3 6 10 8 8 11 12 13 14 15 16 18 18 18 17 18 20 20 22 24 27 26
41 33 31 29 28 33 23 38 32 31 29 25 24 20 16 11 11 12 11 13 12 11 10 9 5 5 4 4 5 5 10 10 12 11 11 13 15 17 18 18 18 19 20 22 23 23 24 25 29
37 26 29 28 30 30 30 31 30 26 21 19 15 12 11 10 9 10 8 11 11 9 8 5 4 4 6 4 3 6 7 6 7 8 10 12 16 17 18 19 19 21 22 23 25 26 26 26 29
28 27 28 27 27 37 30 26 28 22 18 14 10 8 8 6 7 7 6 6 9 8 6 5 4 6 8 8 6 4 4 5 6 9 11 14 15 17 19 21 22 24 25 27 29 29 29 30 31
32 27 29 33 33 36 22 26 28 21 17 15 8 7 5 4 4 4 2 5 8 6 4 7 6 6 6 7 8 7 5 6 9 11 11 14 17 20 22 23 25 26 28 29 30 31 33 34 35
32 30 30 34 33 31 19 28 25 22 22 13 8 8 7 6 5 5 3 3 4 2 3 4 5 5 8 8 10 9 8 9 9 10 12 14 16 19 21 23 24 26 28 30 32 34 36 36 38
29 33 30 25 24 24 27 26 21 15 14 9 8 9 10 8 7 6 6 5 3 2 5 3 4 5 7 8 8 9 8 9 10 12 13 14 16 18 20 22 26 29 31 33 34 35 37 37 37
29 26 32 34 34 33 27 28 27 22 19 16 10 9 9 9 6 5 5 4 4 5 3 6 6 6 8 8 9 9 10 11 12 13 15 16 17 19 23 26 29 30 32 33 35 37 38 40 39
33 39 32 31 32 32 31 31 24 23 18 13 15 13 10 10 8 7 4 3 1 5 6 6 7 8 10 10 10 10 11 13 15 17 18 19 20 22 25 28 31 32 34 36 37 38 39 39 39
35 37 38 37 33 30 29 26 20 18 15 9 8 10 10 10 7 8 6 3 1 5 7 6 7 9 12 12 12 12 13 15 17 20 20 20 22 24 27 29 32 35 37 37 38 38 37 38 38
Wind_Direction
291 293 296 286 278 272 265 272 275 277 290 301 300 303 278 299 316 306 332 106 70 114 120 120 115 104 98 94 92 92 88 85 83 83 83 86 87 88 88 88 86 85 87 87 82 76 76 79 82
295 296 294 282 274 269 260 269 267 275 284 294 308 306 285 289 307 324 355 52 92 116 117 121 119 111 104 101 97 93 88 83 83 83 83 85 86 88 88 86 83 81 84 87 86 81 75 76 79
291 288 280 279 270 262 264 268 275 276 284 286 296 302 290 293 298 305 304 69 104 114 116 127 124 119 113 107 99 94 88 85 82 85 87 84 86 86 85 83 82 79 76 77 82 81 76 73 70
293 288 285 269 267 270 265 272 277 278 280 286 298 291 291 297 309 299 311 323 129 133 128 132 129 120 115 109 101 95 91 87 83 82 83 86 87 88 89 85 81 75 71 70 72 72 72 69 67
292 288 271 270 268 274 274 273 275 274 278 278 290 289 286 288 302 308 315 87 132 120 127 145 145 129 124 119 106 90 84 81 71 67 71 73 76 81 82 79 74 67 64 62 64 64 61 60 62
281 282 273 268 272 277 273 268 275 276 278 275 284 286 283 282 292 292 263 121 142 131 149 142 144 139 134 132 124 104 86 78 75 70 69 62 52 49 48 53 57 53 46 46 51 58 60 57 53
277 277 272 275 275 275 276 278 274 277 282 277 280 280 284 269 273 266 268 261 139 147 176 214 168 166 163 156 140 123 100 83 65 53 49 48 49 47 31 16 359 0 7 18 29 37 41 41 32
281 280 275 277 277 280 284 279 274 280 283 284 284 272 271 256 250 265 274 283 304 327 15 274 248 219 226 251 259 270 288 48 35 39 36 22 14 9 5 359 351 346 348 1 13 14 13 9 3
285 275 272 273 277 282 287 281 275 282 287 288 283 279 274 214 228 256 269 271 283 285 282 279 224 243 252 262 267 273 281 292 303 320 337 345 340 334 328 324 333 345 348 357 355 353 345 338 330
268 273 276 280 276 281 283 279 277 283 285 288 292 289 267 221 223 231 252 267 268 273 280 283 275 269 268 276 275 276 279 282 287 296 307 317 320 322 318 311 310 321 332 333 335 334 335 329 322
273 271 274 282 278 279 281 278 279 285 280 287 289 286 272 259 254 257 265 268 268 271 278 276 268 269 269 274 270 273 276 276 278 279 290 301 306 308 310 311 310 309 311 314 316 321 320 320 320
273 276 274 279 277 280 281 283 275 277 273 283 288 288 278 262 262 260 260 259 263 267 266 268 266 257 263 268 272 277 275 277 278 281 283 290 295 301 307 309 310 308 309 310 309 313 314 311 311
271 275 279 277 277 278 277 276 275 273 270 273 280 286 279 279 280 270 266 267 265 267 265 252 247 249 259 258 247 241 265 261 276 279 278 283 286 290 299 304 316 315 307 306 307 308 310 308 306
282 275 272 276 278 281 277 275 273 271 274 272 273 275 278 279 278 282 273 259 257 256 245 250 243 238 248 266 260 270 278 267 266 268 231 279 287 288 290 304 306 307 310 310 309 311 311 311 310
273 276 277 278 272 271 278 273 260 269 272 274 273 271 275 277 276 277 269 257 247 249 243 237 240 232 229 253 280 276 284 202 191 234 278 279 279 287 290 301 306 305 309 314 315 315 320 318 315
280 271 269 275 271 271 265 266 272 274 269 269 272 274 274 273 275 276 269 265 263 257 247 231 234 243 261 273 264 273 265 282 277 278 274 277 273 279 294 304 308 319 317 318 319 322 319 318 314
268 270 269 273 267 270 258 277 275 274 269 269 270 274 273 275 275 275 271 264 253 247 231 223 226 253 267 275 279 271 287 285 278 279 280 277 282 290 301 307 312 318 316 313 309 311 309 310 312
260 267 271 273 272 262 265 273 276 276 273 270 271 272 272 273 273 274 271 263 255 251 235 239 251 270 274 281 288 284 287 287 288 282 286 288 292 290 300 314 317 318 319 316 313 316 313 313 314
272 262 270 274 271 270 269 273 276 276 275 275 275 275 271 271 276 274 268 264 257 252 232 236 246 268 275 286 288 282 277 282 289 295 303 306 309 305 309 317 322 320 321 320 322 323 319 319 325
255 263 266 274 275 274 273 273 277 277 277 276 275 277 275 268 270 267 263 258 239 228 230 243 254 269 280 283 278 290 288 292 298 300 308 308 313 320 321 324 326 328 326 323 322 323 325 326 327
249 254 262 269 277 273 277 274 278 278 279 273 274 277 275 271 259 255 251 248 242 234 226 237 258 279 275 252 291 299 308 307 301 304 311 313 319 322 320 323 326 329 327 325 324 323 320 317 323
249 252 259 265 269 268 272 272 277 282 278 271 269 268 264 260 247 240 238 242 234 236 238 239 233 248 235 267 280 294 297 297 301 308 320 323 330 333 333 330 328 328 329 327 324 324 322 321 316
252 251 254 261 264 271 264 273 275 285 274 272 265 257 258 249 231 239 225 240 237 233 232 239 255 247 271 260 292 306 310 320 325 327 331 335 332 335 337 339 337 334 331 329 328 326 323 321 317
251 250 256 260 262 261 256 260 271 276 265 264 270 269 253 246 244 251 252 213 217 217 209 245 272 281 288 293 308 312 320 315 322 318 319 323 329 329 332 331 329 327 326 324 323 322 322 321 319
239 235 248 249 249 256 252 258 263 271 270 260 240 251 238 197 193 220 241 217 224 223 229 265 271 290 312 315 335 324 329 328 320 317 325 325 326 326 326 327 327 326 324 323 322 320 320 319 317
235 231 240 248 250 253 255 258 264 259 268 265 246 233 219 193 183 170 153 216 139 250 277 272 287 301 317 321 326 334 347 346 347 345 341 335 334 334 333 332 332 330 327 324 321 319 318 317 315
234 230 233 256 262 259 252 257 267 262 264 253 242 224 225 225 196 176 149 144 145 77 303 326 322 338 338 346 357 350 357 348 345 346 344 340 339 337 335 334 330 328 325 322 321 321 320 320 318
235 235 231 242 247 249 256 248 250 254 257 256 241 218 221 221 199 183 173 161 121 73 34 17 13 353 349 351 356 353 350 344 341 339 336 335 334 332 330 329 328 327 325 322 321 320 321 319 319
227 231 236 241 247 245 249 251 260 256 260 254 249 238 215 206 192 196 176 158 79 72 33 354 344 333 334 339 341 344 339 333 331 329 328 327 328 328 327 326 326 325 324 321 319 320 320 319 319
228 231 232 237 238 247 248 254 261 258 258 244 237 228 223 202 191 226 211 189 136 50 44 348 347 342 342 337 344 345 336 330 326 322 324 326 324 325 325 325 323 322 321 321 320 320 321 320 320